Preview of NWS' New Version of Forecast
This preview is not operational and should not be used for support decisions.

Regional Weather Roundup (RWR)

Issued by National Weather Service (NWS)

                            
000
ASUS45 KBOI 180910
RWRID 

IDAHO REGIONAL WEATHER ROUNDUP
NATIONAL WEATHER SERVICE BOISE ID
300 AM MDT THU APR 18 2019

NOTE: "FAIR" INDICATES FEW OR NO CLOUDS BELOW 12000 FEET
WITH NO SIGNIFICANT WEATHER AND/OR OBSTRUCTIONS TO VISIBILITY

IDZ012-014-181000-
SOUTHWEST IDAHO

  
CITY           SKY/WX    TMP DP  RH WIND       PRES   REMARKS
BOISE          CLEAR     44  37  76 E6        30.32S                  
CALDWELL       CLEAR     43  38  82 CALM      30.32F                  
MOUNTAIN HOME  CLEAR     42  41  98 CALM      30.32S                  
$$

IDZ016-017-181000-
SOUTHCENTRAL IDAHO

  
CITY           SKY/WX    TMP DP  RH WIND       PRES   REMARKS
BURLEY         CLEAR     45  34  65 SW12      30.29R                  
JEROME         CLEAR     44  36  73 SW9       30.30S                  
TWIN FALLS     CLEAR     43  37  79 S16       30.31S                  
$$

IDZ019>023-181000-
SOUTHEAST IDAHO

  
CITY           SKY/WX    TMP DP  RH WIND       PRES   REMARKS
IDAHO FALLS    CLEAR     38  34  85 SW12      30.29R WCI  30          
POCATELLO      CLEAR     42  35  76 SW13      30.31R                  
REXBURG        CLEAR     39  34  82 S7        30.28R WCI  34          
$$

IDZ006-010-011-018-031-032-181000-
CENTRAL IDAHO MOUNTAINS

  
CITY           SKY/WX    TMP DP  RH WIND       PRES   REMARKS
MCCALL         CLEAR     29  26  89 CALM      30.34S                  
HAILEY         CLEAR     37  27  65 NW12      30.31S WCI  30          
STANLEY          N/A     25  20  81 CALM      30.39R                  
SALMON         CLEAR     37  29  72 CALM      30.35R                  
CHALLIS        CLEAR     36  25  64 SE3       30.33R                  
$$

IDZ002-004-006-007-026-181000-
NORTHERN IDAHO

  
CITY           SKY/WX    TMP DP  RH WIND       PRES   REMARKS
LEWISTON       CLEAR     47  37  68 CALM      30.30S                  
LOWELL         NOT AVBL                                               
COEUR D'ALENE  CLEAR     46  39  76 SE12      30.27S                  
MULLAN PASS    MOCLDY    35  31  85 SW6       30.28S WCI  30          
$$